Location: Sternwarte ZA, Rosenfeld-Brittheim
(48.2889°N, 8.6789°E)
Time: 23:12:45
(UTC+01:00)

ISS - Pass Details

Date: 13 November 2019
Orbit: 412 x 421 km, 51.6° (Epoch: 15 November)

Event Time Altitude Azimuth Distance (km) Brightness Sun altitude
Exits shadow 05:48:28 11° 207° (SSW) 1,468 -1.2 -16.7°
Drops below altitude 10° 05:48:40 10° 203° (SSW) 1,497 -1.1 -16.7°
Sets 05:51:52 0° 170° (S) 2,353 0.3 -16.1°
